sep=,
ESTACION,FECHA,NIVEL(m),CAUDAL RIO(m³/s),CAUDAL CANAL(m³/s),CAUDAL TOTAL(m³/s),PLUVIOMETRIA(l/m²),TEMPERATURA AIRE(ºC),CONDUCTIVIDAD(µS/cm),pH,SOLIDOS EN SUSPENSION(mg/l),TEMPERATURA AGUA(ºC),TURBIDEZ(NTU),OXIGENO(mg/l),MATERIA ORGANICA(1/m),FOSFATOS(mg/l),AMONIO(mg/l)
AFORALEKUA,DATA,MAILA(m),IBAI EMARIA(m³/s),KANAL EMARIA(m³/s),EMARI TOTALA(m³/s),PLUBIOMETRIA(l/m²),HAIZE TENPERATURA(ºC),KONDUKTIBITATEA(µS/cm),pH,SOLIDO ESEKIAK(mg/l),UR TENPERATURA(ºC),UHERTASUNA(NTU),OXIGENOA(mg/l),MATERIA ORGANIKOA(1/m),FOSFATOAK(mg/l),AMONIOA(mg/l)
ANARBE,2002-10-01,0.233,0.311,0.395,0.706,0.7,17.3,-,-,-,-,-,-,-,-,-
ANARBE,2002-10-02,0.223,0.282,0.422,0.704,0.2,17.0,-,-,-,-,-,-,-,-,-
ANARBE,2002-10-03,0.213,0.254,0.403,0.658,0.0,15.9,-,-,-,-,-,-,-,-,-
ANARBE,2002-10-04,0.22,0.271,0.364,0.635,0.0,16.6,-,-,-,-,-,-,-,-,-
ANARBE,2002-10-05,0.216,0.261,0.362,0.623,0.0,15.5,-,-,-,-,-,-,-,-,-
ANARBE,2002-10-06,0.211,0.246,0.359,0.605,0.0,11.4,-,-,-,-,-,-,-,-,-
ANARBE,2002-10-07,0.21,0.248,0.359,0.606,0.0,11.5,-,-,-,-,-,-,-,-,-
ANARBE,2002-10-08,0.209,0.254,0.357,0.611,0.8,12.9,-,-,-,-,-,-,-,-,-
ANARBE,2002-10-09,0.32,0.809,0.868,1.678,57.3,12.2,-,-,-,-,-,-,-,-,-
ANARBE,2002-10-10,0.571,4.013,1.735,5.748,85.1,11.7,-,-,-,-,-,-,-,-,-
ANARBE,2002-10-11,0.562,3.367,1.938,5.305,6.1,11.7,-,-,-,-,-,-,-,-,-
ANARBE,2002-10-12,0.584,3.703,1.966,5.669,22.3,12.6,-,-,-,-,-,-,-,-,-
ANARBE,2002-10-13,0.454,1.759,1.86,3.62,1.8,13.5,-,-,-,-,-,-,-,-,-
ANARBE,2002-10-14,0.353,0.947,1.781,2.727,0.2,15.9,-,-,-,-,-,-,-,-,-
ANARBE,2002-10-15,0.284,0.557,1.739,2.296,0.0,16.6,-,-,-,-,-,-,-,-,-
ANARBE,2002-10-16,0.24,0.34,1.72,2.06,2.6,14.7,-,-,-,-,-,-,-,-,-
ANARBE,2002-10-17,0.25,0.385,1.731,2.116,5.6,10.0,-,-,-,-,-,-,-,-,-
ANARBE,2002-10-18,0.221,0.277,1.583,1.86,0.0,8.3,-,-,-,-,-,-,-,-,-
ANARBE,2002-10-19,0.177,0.158,1.492,1.65,0.0,13.8,-,-,-,-,-,-,-,-,-
ANARBE,2002-10-20,0.125,0.054,1.43,1.484,0.0,21.3,-,-,-,-,-,-,-,-,-
ANARBE,2002-10-21,0.2,0.255,1.11,1.365,6.4,19.3,-,-,-,-,-,-,-,-,-
ANARBE,2002-10-22,0.232,0.322,0.932,1.254,2.3,17.5,-,-,-,-,-,-,-,-,-
ANARBE,2002-10-23,0.218,0.327,1.21,1.537,15.1,11.8,-,-,-,-,-,-,-,-,-
ANARBE,2002-10-24,0.166,0.152,1.117,1.269,1.5,11.2,-,-,-,-,-,-,-,-,-
ANARBE,2002-10-25,0.219,0.282,0.852,1.134,0.1,16.2,-,-,-,-,-,-,-,-,-
ANARBE,2002-10-26,0.222,0.283,0.748,1.031,0.0,13.8,-,-,-,-,-,-,-,-,-
ANARBE,2002-10-27,0.211,0.248,0.737,0.985,3.4,13.4,-,-,-,-,-,-,-,-,-
ANARBE,2002-10-28,0.219,0.271,0.68,0.951,0.2,14.2,-,-,-,-,-,-,-,-,-
ANARBE,2002-10-29,0.204,0.228,0.661,0.889,0.0,17.1,-,-,-,-,-,-,-,-,-
ANARBE,2002-10-30,0.219,0.309,0.621,0.93,35.6,16.2,-,-,-,-,-,-,-,-,-
ANARBE,2002-10-31,0.352,1.02,1.438,2.458,7.3,12.3,-,-,-,-,-,-,-,-,-
ANARBE,2002-11-01,0.203,0.229,1.299,1.529,0.0,11.1,-,-,-,-,-,-,-,-,-
ANARBE,2002-11-02,0.205,0.231,1.056,1.287,1.2,14.0,-,-,-,-,-,-,-,-,-
ANARBE,2002-11-03,0.246,0.38,0.997,1.377,10.9,13.4,-,-,-,-,-,-,-,-,-
ANARBE,2002-11-04,0.254,0.427,1.081,1.508,15.3,11.6,-,-,-,-,-,-,-,-,-
ANARBE,2002-11-05,0.279,0.539,1.184,1.724,0.2,10.3,-,-,-,-,-,-,-,-,-
ANARBE,2002-11-06,0.411,2.809,1.474,4.283,59.0,10.3,-,-,-,-,-,-,-,-,-
ANARBE,2002-11-07,0.877,10.405,1.589,11.993,18.2,11.0,-,-,-,-,-,-,-,-,-
ANARBE,2002-11-08,0.66,4.99,1.892,6.882,3.1,10.7,-,-,-,-,-,-,-,-,-
ANARBE,2002-11-09,0.918,12.49,1.9,14.391,78.9,13.4,-,-,-,-,-,-,-,-,-
ANARBE,2002-11-10,1.146,19.019,2.043,21.062,27.4,14.5,-,-,-,-,-,-,-,-,-
ANARBE,2002-11-11,0.843,9.178,1.98,11.158,4.5,11.7,-,-,-,-,-,-,-,-,-
ANARBE,2002-11-12,0.709,5.917,1.906,7.823,0.1,10.7,-,-,-,-,-,-,-,-,-
ANARBE,2002-11-13,0.629,4.441,1.888,6.328,7.5,12.9,-,-,-,-,-,-,-,-,-
ANARBE,2002-11-14,0.582,3.462,1.577,5.038,2.3,9.9,-,-,-,-,-,-,-,-,-
ANARBE,2002-11-15,0.523,2.446,1.698,4.143,0.1,7.8,-,-,-,-,-,-,-,-,-
ANARBE,2002-11-16,0.474,1.942,1.703,3.644,0.0,8.2,-,-,-,-,-,-,-,-,-
ANARBE,2002-11-17,0.433,1.544,1.671,3.215,0.2,8.1,-,-,-,-,-,-,-,-,-
ANARBE,2002-11-18,0.398,1.251,1.658,2.909,0.2,9.6,-,-,-,-,-,-,-,-,-
ANARBE,2002-11-19,0.355,0.956,1.636,2.592,12.1,11.8,-,-,-,-,-,-,-,-,-
ANARBE,2002-11-20,0.418,1.445,1.673,3.118,16.4,9.3,-,-,-,-,-,-,-,-,-
ANARBE,2002-11-21,0.34,0.879,1.614,2.493,0.6,11.4,-,-,-,-,-,-,-,-,-
ANARBE,2002-11-22,0.311,0.719,1.584,2.303,0.0,12.0,-,-,-,-,-,-,-,-,-
ANARBE,2002-11-23,0.29,0.591,1.57,2.161,0.0,11.4,-,-,-,-,-,-,-,-,-
ANARBE,2002-11-24,0.269,0.471,1.565,2.036,2.6,8.5,-,-,-,-,-,-,-,-,-
ANARBE,2002-11-25,0.253,0.398,1.545,1.943,3.7,7.9,-,-,-,-,-,-,-,-,-
ANARBE,2002-11-26,0.233,0.319,1.527,1.846,0.1,6.6,-,-,-,-,-,-,-,-,-
ANARBE,2002-11-27,0.193,0.2,1.508,1.708,0.0,9.9,-,-,-,-,-,-,-,-,-
ANARBE,2002-11-28,0.199,0.245,1.347,1.592,1.7,10.7,-,-,-,-,-,-,-,-,-
ANARBE,2002-11-29,0.243,0.383,1.288,1.671,20.6,8.3,-,-,-,-,-,-,-,-,-
ANARBE,2002-11-30,0.508,2.353,1.431,3.784,34.0,10.0,-,-,-,-,-,-,-,-,-
ANARBE,2002-12-01,0.939,13.402,1.562,14.963,96.6,10.9,-,-,-,-,-,-,-,-,-
ANARBE,2002-12-02,1.105,17.408,1.466,18.874,59.6,8.8,-,-,-,-,-,-,-,-,-
ANARBE,2002-12-03,1.181,20.331,1.34,21.671,66.9,9.2,-,-,-,-,-,-,-,-,-
ANARBE,2002-12-04,1.253,22.855,1.126,23.982,52.0,10.6,-,-,-,-,-,-,-,-,-
ANARBE,2002-12-05,1.032,14.967,1.447,16.414,13.7,7.4,-,-,-,-,-,-,-,-,-
ANARBE,2002-12-06,0.887,10.376,1.756,12.132,6.2,7.4,-,-,-,-,-,-,-,-,-
ANARBE,2002-12-07,0.785,7.61,1.709,9.318,3.5,5.9,-,-,-,-,-,-,-,-,-
ANARBE,2002-12-08,0.708,5.887,1.669,7.556,0.4,6.3,-,-,-,-,-,-,-,-,-
ANARBE,2002-12-09,0.649,4.782,1.623,6.405,0.1,7.6,-,-,-,-,-,-,-,-,-
ANARBE,2002-12-10,0.602,3.925,1.583,5.508,0.0,11.1,-,-,-,-,-,-,-,-,-
ANARBE,2002-12-11,0.552,2.845,1.533,4.378,0.0,10.8,-,-,0,-,-,-,-,-,-
ANARBE,2002-12-12,0.514,2.353,1.505,3.859,0.0,7.1,-,-,0,-,-,-,-,-,-
ANARBE,2002-12-13,0.481,2.007,1.482,3.489,0.0,7.7,-,-,0,-,-,-,-,-,-
ANARBE,2002-12-14,0.451,1.709,1.453,3.162,0.0,13.6,-,-,0,-,-,-,-,-,-
ANARBE,2002-12-15,0.424,1.464,1.441,2.904,0.0,5.7,-,-,0,-,-,-,-,-,-
ANARBE,2002-12-16,0.391,1.2,1.413,2.613,0.0,7.3,-,-,0,-,-,-,-,-,-
ANARBE,2002-12-17,0.378,1.103,1.411,2.514,9.5,11.4,-,-,0,-,-,-,-,-,-
ANARBE,2002-12-18,0.354,0.947,1.437,2.384,0.4,11.1,-,-,0,-,-,-,-,-,-
ANARBE,2002-12-19,0.322,0.762,1.465,2.227,3.1,13.6,-,-,0,-,-,-,-,-,-
ANARBE,2002-12-20,0.294,0.612,1.437,2.049,0.0,10.6,-,-,0,-,-,-,-,-,-
ANARBE,2002-12-21,0.27,0.483,1.424,1.906,0.0,9.4,-,-,0,-,-,-,-,-,-
ANARBE,2002-12-22,0.25,0.388,1.411,1.8,0.0,10.6,-,-,0,-,-,-,-,-,-
ANARBE,2002-12-23,0.22,0.277,1.397,1.674,0.0,16.2,-,-,0,-,-,-,-,-,-
ANARBE,2002-12-24,0.207,0.238,1.392,1.629,0.0,11.6,-,-,0,-,-,-,-,-,-
ANARBE,2002-12-25,0.178,0.159,1.375,1.534,0.0,14.4,-,-,0,-,-,-,-,-,-
ANARBE,2002-12-26,0.197,0.219,1.219,1.439,0.0,18.2,-,-,0,-,-,-,-,-,-
ANARBE,2002-12-27,0.237,0.35,1.143,1.493,23.7,14.1,-,-,0,-,-,-,-,-,-
ANARBE,2002-12-28,0.552,2.998,1.123,4.121,42.9,9.2,-,-,0,-,-,-,-,-,-
ANARBE,2002-12-29,0.451,1.721,1.437,3.158,0.1,10.1,-,-,0,-,-,-,-,-,-
ANARBE,2002-12-30,0.399,1.265,1.4,2.665,19.7,12.1,-,-,0,-,-,-,-,-,-
ANARBE,2002-12-31,0.473,1.928,1.443,3.371,10.0,9.9,-,-,0,-,-,-,-,-,-
ANARBE,2003-01-01,0.452,1.718,1.426,3.145,6.5,12.6,-,-,0,-,-,-,-,-,-
ANARBE,2003-01-02,0.41,1.346,1.533,2.878,1.6,15.2,-,-,0,-,-,-,-,-,-
ANARBE,2003-01-03,0.371,1.051,1.597,2.648,0.0,12.8,-,-,0,-,-,-,-,-,-
ANARBE,2003-01-04,0.409,1.398,1.642,3.039,28.8,7.3,-,-,0,-,-,-,-,-,-
ANARBE,2003-01-05,0.418,1.409,1.671,3.08,2.3,6.9,-,-,0,-,-,-,-,-,-
ANARBE,2003-01-06,0.56,3.493,1.775,5.268,47.2,5.8,-,-,0,-,-,-,-,-,-
ANARBE,2003-01-07,0.559,3.034,1.85,4.884,0.4,4.9,-,-,0,-,-,-,-,-,-
ANARBE,2003-01-08,0.525,2.472,1.872,4.344,13.0,6.5,-,-,0,-,-,-,-,-,-
ANARBE,2003-01-09,0.512,2.328,1.853,4.181,30.7,2.5,-,-,0,-,-,-,-,-,-
ANARBE,2003-01-10,0.496,2.161,1.848,4.009,12.3,1.3,-,-,0,-,-,-,-,-,-
ANARBE,2003-01-11,0.458,1.774,1.817,3.592,0.3,0.6,-,-,0,-,-,-,-,-,-
ANARBE,2003-01-12,0.425,1.468,1.796,3.264,0.0,0.7,-,-,0,-,-,-,-,-,-
ANARBE,2003-01-13,0.39,1.196,1.762,2.958,0.0,0.4,-,-,0,-,-,-,-,-,-
ANARBE,2003-01-14,0.366,1.028,1.732,2.76,0.0,-0.8,-,-,0,-,-,-,-,-,-
ANARBE,2003-01-15,0.348,0.906,1.718,2.624,0.0,2.6,-,-,0,-,-,-,-,-,-
ANARBE,2003-01-16,0.331,0.822,1.704,2.526,1.0,5.8,-,-,0,-,-,-,-,-,-
ANARBE,2003-01-17,0.321,0.753,1.695,2.448,1.6,4.9,-,-,0,-,-,-,-,-,-
ANARBE,2003-01-18,0.306,0.674,1.685,2.359,0.3,10.4,-,-,0,-,-,-,-,-,-
ANARBE,2003-01-19,0.341,0.88,1.71,2.591,15.1,8.2,-,-,0,-,-,-,-,-,-
ANARBE,2003-01-20,0.315,0.724,1.691,2.415,0.2,9.5,-,-,0,-,-,-,-,-,-
ANARBE,2003-01-21,0.306,0.677,1.684,2.361,6.8,10.4,-,-,0,-,-,-,-,-,-
ANARBE,2003-01-22,0.296,0.619,1.671,2.29,6.6,7.8,-,-,0,-,-,-,-,-,-
ANARBE,2003-01-23,0.427,1.53,1.784,3.313,20.9,7.8,-,-,0,-,-,-,-,-,-
ANARBE,2003-01-24,0.403,1.291,1.766,3.057,0.1,3.7,-,-,0,-,-,-,-,-,-
ANARBE,2003-01-25,0.374,1.069,1.74,2.808,0.0,3.1,-,-,0,-,-,-,-,-,-
ANARBE,2003-01-26,0.42,1.445,1.774,3.219,24.4,9.5,-,-,0,-,-,-,-,-,-
ANARBE,2003-01-27,0.565,3.218,1.892,5.11,27.5,10.9,-,-,0,-,-,-,-,-,-
ANARBE,2003-01-28,0.614,4.071,1.914,5.985,28.0,8.9,-,-,0,-,-,-,-,-,-
ANARBE,2003-01-29,0.769,7.318,1.999,9.318,60.7,4.6,-,-,0,-,-,-,-,-,-
ANARBE,2003-01-30,0.889,10.547,2.023,12.57,68.4,4.2,-,-,0,-,-,-,-,-,-
ANARBE,2003-01-31,0.848,9.359,1.998,11.357,4.6,2.9,-,-,0,-,-,-,-,-,-
ANARBE,2003-02-01,0.701,5.737,1.954,7.69,14.2,2.7,-,-,0,-,-,-,-,-,-
ANARBE,2003-02-02,0.841,9.095,1.995,11.09,40.9,7.9,-,-,0,-,-,-,-,-,-
ANARBE,2003-02-03,0.934,11.848,1.994,13.842,9.0,10.1,-,-,0,-,-,-,-,-,-
ANARBE,2003-02-04,1.122,18.16,1.864,20.024,60.8,7.7,-,-,0,-,-,-,-,-,-
ANARBE,2003-02-05,0.963,12.747,1.874,14.621,12.5,5.9,-,-,0,-,-,-,-,-,-
ANARBE,2003-02-06,0.833,8.856,1.852,10.707,0.2,4.5,-,-,0,-,-,-,-,-,-
ANARBE,2003-02-07,0.737,6.492,1.812,8.304,0.0,3.8,-,-,0,-,-,-,-,-,-
ANARBE,2003-02-08,0.665,5.064,1.776,6.839,0.0,3.8,-,-,0,-,-,-,-,-,-
ANARBE,2003-02-09,0.617,4.241,1.761,6.002,8.1,4.1,-,-,0,-,-,-,-,-,-
ANARBE,2003-02-10,0.588,3.614,1.743,5.357,6.0,6.0,-,-,0,-,-,-,-,-,-
ANARBE,2003-02-11,0.542,2.656,1.709,4.364,0.6,6.9,-,-,0,-,-,-,-,-,-
ANARBE,2003-02-12,0.568,3.219,1.731,4.95,25.9,6.8,-,-,0,-,-,-,-,-,-
ANARBE,2003-02-13,0.537,2.594,1.707,4.301,2.9,5.4,-,-,0,-,-,-,-,-,-
ANARBE,2003-02-14,0.509,2.295,1.685,3.979,0.5,3.6,-,-,0,-,-,-,-,-,-
ANARBE,2003-02-15,0.479,1.989,1.655,3.644,0.0,1.1,-,-,0,-,-,-,-,-,-
ANARBE,2003-02-16,0.452,1.719,1.626,3.345,0.0,1.4,-,-,0,-,-,-,-,-,-
ANARBE,2003-02-17,0.427,1.487,1.605,3.092,0.0,0.1,-,-,0,-,-,-,-,-,-
ANARBE,2003-02-18,0.402,1.28,1.589,2.868,0.0,1.9,-,-,0,-,-,-,-,-,-
ANARBE,2003-02-19,0.386,1.155,1.583,2.738,0.4,5.9,-,-,0,-,-,-,-,-,-
ANARBE,2003-02-20,0.363,0.995,1.572,2.568,2.2,5.9,-,-,0,-,-,-,-,-,-
ANARBE,2003-02-21,0.338,0.847,1.56,2.407,0.1,8.6,-,-,0,-,-,-,-,-,-
ANARBE,2003-02-22,0.309,0.695,1.547,2.242,0.0,11.1,-,-,0,-,-,-,-,-,-
ANARBE,2003-02-23,0.294,0.609,1.524,2.133,1.3,12.2,-,-,0,-,-,-,-,-,-
ANARBE,2003-02-24,0.269,0.475,1.507,1.982,0.0,12.8,-,-,0,-,-,-,-,-,-
ANARBE,2003-02-25,0.247,0.372,1.503,1.875,0.0,13.7,-,-,0,-,-,-,-,-,-
ANARBE,2003-02-26,0.268,0.488,1.528,2.016,9.9,10.6,-,-,0,-,-,-,-,-,-
ANARBE,2003-02-27,0.238,0.337,1.504,1.841,0.3,7.5,-,-,0,-,-,-,-,-,-
ANARBE,2003-02-28,0.221,0.277,1.456,1.733,0.0,8.2,-,-,0,-,-,-,-,-,-
ANARBE,2003-03-01,0.204,0.247,1.416,1.663,0.7,12.3,-,-,0,-,-,-,-,-,-
ANARBE,2003-03-02,0.187,0.181,1.41,1.59,2.8,9.7,-,-,0,-,-,-,-,-,-
ANARBE,2003-03-03,0.617,5.838,1.658,7.496,68.6,11.4,-,-,0,-,-,-,-,-,-
ANARBE,2003-03-04,0.55,2.937,1.698,4.635,0.1,12.1,-,-,0,-,-,-,-,-,-
ANARBE,2003-03-05,0.508,2.501,1.678,4.18,29.8,11.9,-,-,0,-,-,-,-,-,-
ANARBE,2003-03-06,0.62,4.27,1.76,6.03,18.1,8.1,-,-,0,-,-,-,-,-,-
ANARBE,2003-03-07,0.56,2.992,1.727,4.719,0.1,8.1,-,-,0,-,-,-,-,-,-
ANARBE,2003-03-08,0.512,2.329,1.699,4.028,0.2,9.3,-,-,0,-,-,-,-,-,-
ANARBE,2003-03-09,0.473,1.924,1.675,3.599,0.0,9.5,-,-,0,-,-,-,-,-,-
ANARBE,2003-03-10,0.438,1.59,1.647,3.237,0.0,11.4,-,-,0,-,-,-,-,-,-
ANARBE,2003-03-11,0.406,1.31,1.623,2.933,0.0,16.7,-,-,0,-,-,-,-,-,-
ANARBE,2003-03-12,0.377,1.087,1.612,2.699,0.0,13.2,-,-,0,-,-,-,-,-,-
ANARBE,2003-03-13,0.35,0.918,1.574,2.492,0.0,10.1,-,-,0,-,-,-,-,-,-
ANARBE,2003-03-14,0.335,0.831,1.566,2.396,0.0,9.8,-,-,0,-,-,-,-,-,-
ANARBE,2003-03-15,0.307,0.68,1.551,2.231,0.0,10.3,-,-,0,-,-,-,-,-,-
ANARBE,2003-03-16,0.281,0.541,1.548,2.089,0.0,12.0,-,-,0,-,-,-,-,-,-
ANARBE,2003-03-17,0.256,0.412,1.536,1.948,0.0,11.7,-,-,0,-,-,-,-,-,-
ANARBE,2003-03-18,0.236,0.328,1.517,1.845,0.0,7.6,-,-,0,-,-,-,-,-,-
ANARBE,2003-03-19,0.226,0.293,1.456,1.749,0.0,7.7,-,-,0,-,-,-,-,-,-
ANARBE,2003-03-20,0.218,0.269,1.395,1.664,0.0,7.4,-,-,0,-,-,-,-,-,-
ANARBE,2003-03-21,0.217,0.268,1.314,1.582,0.0,8.3,-,-,0,-,-,-,-,-,-
ANARBE,2003-03-22,0.223,0.283,1.226,1.509,0.0,12.8,-,-,0,-,-,-,-,-,-
ANARBE,2003-03-23,0.209,0.241,1.214,1.454,0.0,15.7,-,-,0,-,-,-,-,-,-
ANARBE,2003-03-24,0.196,0.206,1.205,1.411,0.0,14.7,-,-,0,-,-,-,-,-,-
ANARBE,2003-03-25,0.238,0.359,0.979,1.338,0.0,14.8,-,-,0,-,-,-,-,-,-
ANARBE,2003-03-26,0.259,0.453,0.836,1.289,0.0,14.6,-,-,0,-,-,-,-,-,-
ANARBE,2003-03-27,0.226,0.309,0.979,1.288,0.0,16.3,-,-,0,-,-,-,-,-,-
ANARBE,2003-03-28,0.231,0.321,1.131,1.452,25.5,11.9,-,-,0,-,-,-,-,-,-
ANARBE,2003-03-29,0.234,0.383,1.282,1.664,2.0,12.2,-,-,0,-,-,-,-,-,-
ANARBE,2003-03-30,0.167,0.157,1.272,1.429,2.6,12.2,-,-,0,-,-,-,-,-,-
ANARBE,2003-03-31,0.198,0.225,1.183,1.408,0.1,11.2,-,-,0,-,-,-,-,-,-
ANARBE,2003-04-01,0.208,0.242,1.047,1.289,0.0,11.9,-,-,0,-,-,-,-,-,-
ANARBE,2003-04-02,0.285,0.595,1.325,1.919,28.8,9.8,-,-,0,-,-,-,-,-,-
ANARBE,2003-04-03,0.237,0.356,1.499,1.856,1.0,8.3,-,-,0,-,-,-,-,-,-
ANARBE,2003-04-04,0.207,0.246,1.336,1.581,0.0,6.4,-,-,0,-,-,-,-,-,-
ANARBE,2003-04-05,0.228,0.307,1.161,1.468,0.0,6.7,-,-,0,-,-,-,-,-,-
ANARBE,2003-04-06,0.228,0.303,1.106,1.409,0.0,10.5,-,-,0,-,-,-,-,-,-
ANARBE,2003-04-07,0.25,0.398,0.964,1.362,0.0,7.1,-,-,0,-,-,-,-,-,-
ANARBE,2003-04-08,0.27,0.481,0.824,1.305,0.0,9.4,-,-,0,-,-,-,-,-,-
ANARBE,2003-04-09,0.278,0.533,0.916,1.449,18.3,8.0,-,-,0,-,-,-,-,-,-
ANARBE,2003-04-10,0.241,0.377,1.148,1.525,0.3,8.0,-,-,0,-,-,-,-,-,-
ANARBE,2003-04-11,0.223,0.291,1.267,1.558,10.8,7.9,-,-,0,-,-,-,-,-,-
ANARBE,2003-04-12,0.217,0.278,1.219,1.497,0.1,10.2,-,-,0,-,-,-,-,-,-
ANARBE,2003-04-13,0.228,0.321,1.114,1.435,0.0,19.5,-,-,0,-,-,-,-,-,-
ANARBE,2003-04-14,0.191,0.211,1.176,1.387,0.0,16.1,-,-,0,-,-,-,-,-,-
ANARBE,2003-04-15,0.212,0.275,1.124,1.4,2.5,13.4,-,-,0,-,-,-,-,-,-
ANARBE,2003-04-16,0.247,0.377,0.973,1.35,0.0,12.8,-,-,0,-,-,-,-,-,-
ANARBE,2003-04-17,0.238,0.342,0.959,1.301,0.0,14.9,-,-,0,-,-,-,-,-,-
ANARBE,2003-04-18,0.229,0.315,0.955,1.27,0.0,15.1,-,-,0,-,-,-,-,-,-
ANARBE,2003-04-19,0.273,0.5,0.854,1.354,9.7,12.8,-,-,0,-,-,-,-,-,-
ANARBE,2003-04-20,0.263,0.447,0.852,1.299,3.3,10.2,-,-,0,-,-,-,-,-,-
ANARBE,2003-04-21,0.246,0.38,0.848,1.228,0.0,13.1,-,-,0,-,-,-,-,-,-
ANARBE,2003-04-22,0.233,0.329,0.843,1.172,0.0,15.0,-,-,0,-,-,-,-,-,-
ANARBE,2003-04-23,0.237,0.34,0.776,1.116,0.2,16.7,-,-,0,-,-,-,-,-,-
ANARBE,2003-04-24,0.237,0.336,0.755,1.09,0.1,16.2,-,-,0,-,-,-,-,-,-
ANARBE,2003-04-25,0.25,0.395,0.674,1.068,0.7,17.4,-,-,0,-,-,-,-,-,-
ANARBE,2003-04-26,0.23,0.331,0.617,0.948,1.6,14.0,-,-,0,-,-,-,-,-,-
ANARBE,2003-04-27,0.157,0.122,0.566,0.688,0.0,17.1,-,-,0,-,-,-,-,-,-
ANARBE,2003-04-28,0.238,0.365,0.386,0.751,4.8,19.9,-,-,0,-,-,-,-,-,-
ANARBE,2003-04-29,0.239,0.369,0.499,0.869,2.4,16.5,-,-,0,-,-,-,-,-,-
ANARBE,2003-04-30,0.209,0.284,0.395,0.679,0.6,12.4,-,-,0,-,-,-,-,-,-
ANARBE,2003-05-01,0.233,0.333,0.358,0.691,0.0,15.0,-,-,0,-,-,-,-,-,-
ANARBE,2003-05-02,0.228,0.353,0.338,0.692,0.0,12.9,-,-,0,-,-,-,-,-,-
ANARBE,2003-05-03,0.208,0.304,0.325,0.628,0.0,14.0,-,-,0,-,-,-,-,-,-
ANARBE,2003-05-04,0.23,0.33,0.339,0.669,0.2,21.5,-,-,0,-,-,-,-,-,-
ANARBE,2003-05-05,0.267,0.508,0.466,0.975,42.2,11.4,-,-,0,-,-,-,-,-,-
ANARBE,2003-05-06,0.61,4.415,1.508,5.923,121.1,9.9,-,-,0,-,-,-,-,-,-
ANARBE,2003-05-07,0.678,5.432,1.985,7.418,19.7,11.6,-,-,0,-,-,-,-,-,-
ANARBE,2003-05-08,0.473,1.93,1.828,3.758,0.1,11.2,-,-,0,-,-,-,-,-,-
ANARBE,2003-05-09,0.413,1.37,1.738,3.107,0.0,11.5,-,-,0,-,-,-,-,-,-
ANARBE,2003-05-10,0.356,0.955,1.678,2.633,0.0,11.3,-,-,0,-,-,-,-,-,-
ANARBE,2003-05-11,0.31,0.697,1.637,2.333,0.0,10.8,-,-,0,-,-,-,-,-,-
ANARBE,2003-05-12,0.274,0.506,1.59,2.096,0.0,14.5,-,-,0,-,-,-,-,-,-
ANARBE,2003-05-13,0.256,0.418,1.56,1.978,5.8,11.6,-,-,0,-,-,-,-,-,-
ANARBE,2003-05-14,0.219,0.28,1.477,1.757,0.0,10.2,-,-,0,-,-,-,-,-,-
ANARBE,2003-05-15,0.209,0.241,1.386,1.628,0.0,12.0,-,-,0,-,-,-,-,-,-
ANARBE,2003-05-16,0.235,0.335,1.221,1.556,3.0,11.4,-,-,0,-,-,-,-,-,-
ANARBE,2003-05-17,0.231,0.318,1.14,1.457,0.0,15.4,-,-,0,-,-,-,-,-,-
ANARBE,2003-05-18,0.208,0.243,1.134,1.377,0.0,18.2,-,-,0,-,-,-,-,-,-
ANARBE,2003-05-19,0.243,0.376,0.984,1.36,4.3,13.3,-,-,0,-,-,-,-,-,-
ANARBE,2003-05-20,0.221,0.292,0.906,1.198,1.4,11.7,-,-,0,-,-,-,-,-,-
ANARBE,2003-05-21,0.241,0.372,0.641,1.013,0.0,12.3,-,-,0,-,-,-,-,-,-
ANARBE,2003-05-22,0.25,0.389,0.544,0.933,0.0,16.0,-,-,0,-,-,-,-,-,-
ANARBE,2003-05-23,0.263,0.448,0.485,0.933,0.0,16.3,-,-,0,-,-,-,-,-,-
ANARBE,2003-05-24,0.271,0.483,0.522,1.005,18.2,12.5,-,-,0,-,-,-,-,-,-
ANARBE,2003-05-25,0.36,1.003,0.952,1.956,24.9,10.8,-,-,0,-,-,-,-,-,-
ANARBE,2003-05-26,0.291,0.594,0.969,1.563,1.8,11.6,-,-,0,-,-,-,-,-,-
ANARBE,2003-05-27,0.262,0.435,0.802,1.237,0.0,13.2,-,-,0,-,-,-,-,-,-
ANARBE,2003-05-28,0.258,0.421,0.659,1.08,0.0,16.3,-,-,0,-,-,-,-,-,-
ANARBE,2003-05-29,0.257,0.416,0.555,0.971,0.0,20.0,-,-,0,-,-,-,-,-,-
ANARBE,2003-05-30,0.235,0.332,0.551,0.884,0.0,19.3,-,-,0,-,-,-,-,-,-
ANARBE,2003-05-31,0.205,0.23,0.627,0.858,0.0,17.0,-,-,0,-,-,-,-,-,-
ANARBE,2003-06-01,0.203,0.226,0.603,0.829,4.7,17.1,-,-,0,-,-,-,-,-,-
ANARBE,2003-06-02,0.202,0.224,0.674,0.898,4.9,17.6,-,-,0,-,-,-,-,-,-
ANARBE,2003-06-03,0.203,0.225,0.721,0.947,6.2,19.7,-,-,0,-,-,-,-,-,-
ANARBE,2003-06-04,0.19,0.189,0.798,0.987,18.1,17.1,-,-,0,-,-,-,-,-,-
ANARBE,2003-06-05,0.179,0.162,0.889,1.051,2.7,15.3,-,-,0,-,-,-,-,-,-
ANARBE,2003-06-06,0.194,0.205,0.656,0.86,0.0,18.5,-,-,0,-,-,-,-,-,-
ANARBE,2003-06-07,0.177,0.152,0.613,0.766,1.1,20.8,-,-,0,-,-,-,-,-,-
ANARBE,2003-06-08,0.168,0.125,0.634,0.759,2.5,16.6,-,-,0,-,-,-,-,-,-
ANARBE,2003-06-09,0.195,0.206,0.5,0.706,0.0,21.8,-,-,0,-,-,-,-,-,-
ANARBE,2003-06-10,0.2,0.221,0.423,0.644,0.0,20.6,-,-,0,-,-,-,-,-,-
ANARBE,2003-06-11,0.2,0.22,0.427,0.647,0.0,21.2,-,-,0,-,-,-,-,-,-
ANARBE,2003-06-12,0.191,0.19,0.435,0.625,0.0,19.5,-,-,0,-,-,-,-,-,-
ANARBE,2003-06-13,0.222,0.304,0.298,0.602,0.0,23.6,-,-,0,-,-,-,-,-,-
ANARBE,2003-06-14,0.243,0.396,0.287,0.684,0.0,22.2,-,-,0,-,-,-,-,-,-
ANARBE,2003-06-15,0.195,0.205,0.396,0.602,0.0,21.4,-,-,0,-,-,-,-,-,-
ANARBE,2003-06-16,0.173,0.144,0.46,0.604,6.9,18.5,-,-,0,-,-,-,-,-,-
ANARBE,2003-06-17,0.191,0.201,0.477,0.678,4.6,16.2,-,-,0,-,-,-,-,-,-
ANARBE,2003-06-18,0.186,0.184,0.4,0.584,0.7,17.0,-,-,0,-,-,-,-,-,-
ANARBE,2003-06-19,0.204,0.244,0.247,0.49,0.0,18.1,-,-,0,-,-,-,-,-,-
ANARBE,2003-06-20,0.213,0.269,0.264,0.533,0.0,22.2,-,-,0,-,-,-,-,-,-
ANARBE,2003-06-21,0.183,0.172,0.331,0.503,0.0,24.8,-,-,0,-,-,-,-,-,-
ANARBE,2003-06-22,0.163,0.116,0.343,0.459,0.0,23.2,-,-,0,-,-,-,-,-,-
ANARBE,2003-06-23,0.203,0.226,0.258,0.484,0.0,19.7,-,-,0,-,-,-,-,-,-
ANARBE,2003-06-24,0.224,0.285,0.233,0.518,1.2,19.9,-,-,0,-,-,-,-,-,-
ANARBE,2003-06-25,0.204,0.228,0.285,0.513,2.3,18.7,-,-,0,-,-,-,-,-,-
ANARBE,2003-06-26,0.203,0.227,0.303,0.53,0.8,17.7,-,-,0,-,-,-,-,-,-
ANARBE,2003-06-27,0.184,0.176,0.313,0.489,0.1,18.4,-,-,0,-,-,-,-,-,-
ANARBE,2003-06-28,0.167,0.131,0.353,0.484,0.1,20.2,-,-,0,-,-,-,-,-,-
ANARBE,2003-06-29,0.154,0.098,0.333,0.431,0.0,22.4,-,-,0,-,-,-,-,-,-
ANARBE,2003-06-30,0.151,0.093,0.332,0.425,0.0,20.3,-,-,0,-,-,-,-,-,-
ANARBE,2003-07-01,0.177,0.161,0.282,0.443,0.0,18.1,-,-,0,-,-,-,-,-,-
ANARBE,2003-07-02,0.189,0.192,0.266,0.458,2.2,16.5,-,-,0,-,-,-,-,-,-
ANARBE,2003-07-03,0.188,0.189,0.279,0.468,2.3,16.2,-,-,0,-,-,-,-,-,-
ANARBE,2003-07-04,0.183,0.174,0.276,0.451,0.1,15.8,-,-,0,-,-,-,-,-,-
ANARBE,2003-07-05,0.181,0.167,0.263,0.429,0.0,16.9,-,-,0,-,-,-,-,-,-
ANARBE,2003-07-06,0.18,0.152,0.257,0.409,0.0,17.5,-,-,0,-,-,-,-,-,-
ANARBE,2003-07-07,0.182,0.161,0.259,0.42,0.0,17.6,-,-,0,-,-,-,-,-,-
ANARBE,2003-07-08,0.181,0.161,0.253,0.414,0.0,20.4,-,-,0,-,-,-,-,-,-
ANARBE,2003-07-09,0.206,0.231,0.192,0.424,0.1,18.7,-,-,0,-,-,-,-,-,-
ANARBE,2003-07-10,0.219,0.27,0.162,0.431,0.0,20.2,-,-,0,-,-,-,-,-,-
ANARBE,2003-07-11,0.215,0.257,0.159,0.416,0.0,21.4,-,-,0,-,-,-,-,-,-
ANARBE,2003-07-12,0.215,0.257,0.155,0.412,0.0,24.1,-,-,0,-,-,-,-,-,-
ANARBE,2003-07-13,0.206,0.233,0.167,0.4,0.4,20.5,-,-,0,-,-,-,-,-,-
ANARBE,2003-07-14,0.19,0.195,0.195,0.39,1.1,19.9,-,-,0,-,-,-,-,-,-
ANARBE,2003-07-15,0.243,0.469,0.243,0.712,28.0,20.7,-,-,0,-,-,-,-,-,-
ANARBE,2003-07-16,0.22,0.321,0.434,0.755,0.1,16.1,-,-,0,-,-,-,-,-,-
ANARBE,2003-07-17,0.163,0.117,0.284,0.4,0.0,17.3,-,-,0,-,-,-,-,-,-
ANARBE,2003-07-18,0.158,0.105,0.273,0.378,0.0,21.3,-,-,0,-,-,-,-,-,-
ANARBE,2003-07-19,0.158,0.105,0.264,0.369,0.0,20.5,-,-,0,-,-,-,-,-,-
ANARBE,2003-07-20,0.161,0.114,0.263,0.377,0.0,20.1,-,-,0,-,-,-,-,-,-
ANARBE,2003-07-21,0.157,0.104,0.271,0.374,1.3,18.4,-,-,0,-,-,-,-,-,-
ANARBE,2003-07-22,0.157,0.103,0.272,0.375,0.0,18.1,-,-,0,-,-,-,-,-,-
ANARBE,2003-07-23,0.235,0.345,0.064,0.409,0.0,18.5,-,-,0,-,-,-,-,-,-
ANARBE,2003-07-24,0.254,0.405,0.0050,0.41,0.0,18.3,-,-,0,-,-,-,-,-,-
ANARBE,2003-07-25,0.252,0.391,0.0040,0.396,0.0,19.0,-,-,0,-,-,-,-,-,-
ANARBE,2003-07-26,0.245,0.382,0.0040,0.387,0.0,21.9,-,-,0,-,-,-,-,-,-
ANARBE,2003-07-27,0.271,0.493,0.0040,0.498,12.2,17.7,-,-,0,-,-,-,-,-,-
ANARBE,2003-07-28,0.259,0.425,0.0040,0.43,0.3,17.6,-,-,0,-,-,-,-,-,-
ANARBE,2003-07-29,0.258,0.417,0.0040,0.421,0.0,17.3,-,-,0,-,-,-,-,-,-
ANARBE,2003-07-30,0.258,0.418,0.0030,0.421,0.0,18.4,-,-,0,-,-,-,-,-,-
ANARBE,2003-07-31,0.256,0.417,0.0030,0.419,0.0,19.2,-,-,0,-,-,-,-,-,-
ANARBE,2003-08-01,0.255,0.408,0.0020,0.411,0.0,19.3,-,-,0,-,-,-,-,-,-
ANARBE,2003-08-02,0.254,0.404,0.0030,0.407,0.0,21.3,-,-,0,-,-,-,-,-,-
ANARBE,2003-08-03,0.253,0.395,0.0030,0.398,0.0,23.7,-,-,0,-,-,-,-,-,-
ANARBE,2003-08-04,0.25,0.383,0.0030,0.387,0.0,27.8,-,-,0,-,-,-,-,-,-
ANARBE,2003-08-05,0.25,0.38,0.0040,0.385,0.0,24.3,-,-,0,-,-,-,-,-,-
ANARBE,2003-08-06,0.251,0.386,0.0040,0.39,0.0,23.0,-,-,0,-,-,-,-,-,-
ANARBE,2003-08-07,0.251,0.386,0.0040,0.39,0.0,24.1,-,-,0,-,-,-,-,-,-
ANARBE,2003-08-08,0.248,0.374,0.0040,0.378,0.0,25.9,-,-,0,-,-,-,-,-,-
ANARBE,2003-08-09,0.245,0.362,0.0040,0.366,0.0,25.2,-,-,0,-,-,-,-,-,-
ANARBE,2003-08-10,0.246,0.364,0.0040,0.368,0.0,23.1,-,-,0,-,-,-,-,-,-
ANARBE,2003-08-11,0.248,0.373,0.0050,0.378,0.2,24.2,-,-,0,-,-,-,-,-,-
ANARBE,2003-08-12,0.247,0.37,0.0050,0.375,0.0,26.2,-,-,0,-,-,-,-,-,-
ANARBE,2003-08-13,0.244,0.356,0.0050,0.361,0.0,26.5,-,-,0,-,-,-,-,-,-
ANARBE,2003-08-14,0.246,0.366,0.0040,0.37,0.0,22.4,-,-,0,-,-,-,-,-,-
ANARBE,2003-08-15,0.249,0.378,0.0050,0.383,1.4,21.4,-,-,0,-,-,-,-,-,-
ANARBE,2003-08-16,0.273,0.506,0.0050,0.512,21.9,19.7,-,-,0,-,-,-,-,-,-
ANARBE,2003-08-17,0.283,0.549,0.0060,0.555,0.2,19.5,-,-,0,-,-,-,-,-,-
ANARBE,2003-08-18,0.257,0.414,0.0060,0.42,0.0,22.0,-,-,0,-,-,-,-,-,-
ANARBE,2003-08-19,0.251,0.389,0.0050,0.393,0.0,21.3,-,-,0,-,-,-,-,-,-
ANARBE,2003-08-20,0.254,0.402,0.0050,0.407,3.4,19.7,-,-,0,-,-,-,-,-,-
ANARBE,2003-08-21,0.254,0.398,0.0050,0.403,0.0,19.6,-,-,0,-,-,-,-,-,-
ANARBE,2003-08-22,0.252,0.393,0.0050,0.398,0.0,20.3,-,-,0,-,-,-,-,-,-
ANARBE,2003-08-23,0.25,0.384,0.0050,0.389,0.3,21.0,-,-,0,-,-,-,-,-,-
ANARBE,2003-08-24,0.249,0.379,0.0050,0.383,0.0,20.9,-,-,0,-,-,-,-,-,-
ANARBE,2003-08-25,0.247,0.368,0.0040,0.373,5.5,19.6,-,-,0,-,-,-,-,-,-
ANARBE,2003-08-26,0.266,0.461,0.0050,0.466,5.9,18.2,-,-,0,-,-,-,-,-,-
ANARBE,2003-08-27,0.274,0.507,0.0050,0.513,0.0,22.9,-,-,0,-,-,-,-,-,-
ANARBE,2003-08-28,0.303,0.663,0.0050,0.667,0.9,19.3,-,-,0,-,-,-,-,-,-
ANARBE,2003-08-29,0.296,0.621,0.0040,0.624,0.0,20.8,-,-,0,-,-,-,-,-,-
ANARBE,2003-08-30,0.282,0.545,0.0050,0.549,6.3,17.0,-,-,0,-,-,-,-,-,-
ANARBE,2003-08-31,0.287,0.574,0.0050,0.579,1.7,17.1,-,-,0,-,-,-,-,-,-
ANARBE,2003-09-01,0.285,0.559,0.0040,0.563,0.2,16.3,-,-,0,-,-,-,-,-,-
ANARBE,2003-09-02,0.28,0.53,0.0030,0.533,0.1,16.2,-,-,0,-,-,-,-,-,-
ANARBE,2003-09-03,0.278,0.518,0.0020,0.521,0.0,15.1,-,-,0,-,-,-,-,-,-
ANARBE,2003-09-04,0.298,0.633,0.0040,0.637,10.4,17.6,-,-,0,-,-,-,-,-,-
ANARBE,2003-09-05,0.284,0.556,0.0050,0.561,0.8,18.4,-,-,0,-,-,-,-,-,-
ANARBE,2003-09-06,0.285,0.561,0.0060,0.567,4.7,16.6,-,-,0,-,-,-,-,-,-